RH
6 6 5 4 4 4 4 3 3 2 2 2 2 2 2 2 2 2 2 2 2 2 2 2 2 3 4 5 7 8 11 14 16 19 22 24 27 30 33 35 38 40 42 43 45 46 48 49 49 50 50 50 50 49 48 48 47 46 45 44 43 42 42 41 40 40 39 39 38 38 38 38 38 38 38 39 39 40 40 40 41 42 42 42 42 43
5 5 4 4 4 3 3 3 2 2 2 2 2 2 2 2 2 2 2 2 2 2 3 3 4 5 6 8 10 13 16 20 22 25 28 31 34 37 40 42 44 45 47 48 49 50 51 51 51 51 51 51 50 50 49 48 47 46 45 44 44 43 42 41 40 40 40 39 39 39 39 39 39 39 39 39 40 40 40 41 42 42 42 43 43 43
5 4 4 4 3 3 3 2 2 2 2 2 2 2 2 2 2 2 2 2 3 3 4 5 6 8 10 12 15 18 22 25 28 31 34 38 40 43 45 47 48 50 50 51 52 52 52 52 52 52 52 51 50 50 49 48 47 46 45 44 44 43 42 42 41 40 40 40 40 40 39 39 39 39 40 40 40 40 41 42 42 43 43 44 44 44
4 4 3 3 3 2 2 2 2 2 2 2 2 2 2 2 2 2 2 3 4 4 6 8 10 12 14 18 21 24 27 31 34 38 40 43 46 48 50 51 52 52 53 53 53 53 53 53 52 52 52 51 50 50 49 48 47 46 45 44 44 43 42 42 42 42 41 41 40 40 40 40 40 40 40 41 42 42 42 43 44 44 44 45 45 45
4 3 3 3 3 2 2 2 2 2 2 2 2 2 2 2 2 3 4 4 6 7 8 11 14 17 20 24 27 30 34 37 40 43 46 48 50 52 53 53 54 54 54 54 53 53 52 52 52 51 50 50 50 49 48 47 46 45 44 44 43 43 42 42 42 42 42 42 42 41 42 42 42 42 42 43 44 44 44 45 45 46 46 46 46 46
3 3 3 3 3 3 3 3 3 2 2 2 2 2 2 3 4 4 5 7 8 10 13 16 19 23 26 30 34 37 40 42 45 48 50 52 53 54 54 54 54 53 52 52 52 51 50 50 49 49 49 48 48 47 46 46 45 44 43 43 42 42 42 42 42 42 42 42 42 42 42 43 43 44 44 45 45 46 46 46 47 47 48 48 48 48
3 3 3 3 3 3 3 3 3 3 3 3 3 3 4 4 5 6 8 10 13 16 18 22 26 29 33 37 40 43 45 46 48 50 52 53 53 53 53 52 52 51 50 49 48 48 47 47 46 46 46 46 46 45 44 44 43 42 42 42 42 42 41 41 41 41 41 42 42 43 43 44 44 45 46 46 47 48 48 49 50 50 51 51 52 52
3 3 3 3 4 4 3 3 3 3 4 4 4 5 5 6 8 10 12 14 18 22 26 29 32 36 39 42 44 46 48 49 50 51 52 52 52 51 50 49 48 47 46 46 45 44 44 44 44 44 44 44 44 43 42 42 42 41 40 40 40 40 40 40 40 40 40 42 42 43 44 46 47 48 50 51 52 52 53 54 54 54 55 55 56 56
3 3 4 4 4 4 4 4 4 4 5 5 6 7 8 10 12 15 18 21 24 28 32 36 39 42 43 45 47 48 49 50 51 52 51 50 50 48 47 46 44 44 43 42 42 42 42 42 42 42 43 43 42 42 42 42 40 40 40 39 39 38 38 38 39 40 42 43 45 47 50 52 54 56 57 58 58 58 58 58 58 58 58 58 58 58
4 4 4 4 5 5 4 4 4 5 6 8 10 12 14 16 18 20 24 28 31 34 38 42 43 44 45 47 48 49 49 50 51 51 50 49 47 46 44 43 42 41 40 40 40 40 40 40 42 42 42 42 42 42 42 42 42 42 40 39 38 38 38 39 40 43 45 49 53 56 60 61 62 62 62 61 60 60 60 59 58 58 58 58 59 60
5 5 5 5 6 6 6 5 6 7 8 10 13 17 23 26 27 28 30 34 38 41 43 46 46 47 47 48 48 50 50 49 49 48 48 46 44 43 42 41 40 40 40 39 39 40 40 41 42 42 42 43 43 44 44 44 44 43 42 40 40 40 40 42 46 50 54 58 62 64 65 64 64 62 61 60 60 60 58 58 58 58 58 58 58 58
6 6 6 6 6 6 6 7 8 10 12 15 19 23 28 34 37 39 40 42 44 46 47 48 48 48 48 48 49 49 49 48 48 46 44 42 42 40 40 40 40 40 40 40 40 40 41 42 42 42 43 44 44 46 46 47 47 46 44 42 42 42 44 48 53 58 63 65 66 65 64 63 62 62 61 60 60 59 58 58 57 57 56 56 56 57
7 7 7 8 8 8 8 8 11 14 18 23 27 31 35 40 44 47 48 49 50 50 50 50 49 49 48 48 49 49 49 48 46 45 43 42 40 41 42 42 41 40 40 40 40 41 42 42 43 43 44 44 46 47 49 50 50 48 46 45 45 47 50 56 61 65 66 66 65 64 63 63 63 62 62 61 61 60 59 58 58 57 56 56 56 56
8 8 8 8 8 8 10 12 15 20 24 31 36 40 43 47 50 53 54 54 54 54 52 51 49 48 47 48 48 49 49 48 47 46 43 42 42 44 45 44 43 42 42 42 42 42 43 43 43 43 44 45 47 49 52 53 52 50 48 48 49 52 57 62 66 66 65 64 64 64 64 65 65 65 65 64 64 63 62 61 60 58 57 56 55 55
9 9 8 9 10 11 13 17 22 26 32 39 43 48 51 54 56 58 58 56 56 55 53 51 49 47 46 46 48 49 51 52 51 49 46 44 44 46 49 48 46 44 43 43 42 42 42 43 43 43 44 45 48 51 54 56 55 53 51 51 53 58 63 66 66 66 65 64 65 66 67 68 68 69 69 68 68 67 66 65 64 62 60 58 56 55
10 10 10 10 12 14 18 24 29 34 40 46 51 55 57 58 60 60 60 59 58 56 54 52 49 46 44 44 46 50 54 57 56 54 50 46 46 48 52 51 48 45 44 43 42 42 42 42 42 43 44 46 50 54 58 59 58 56 54 54 58 62 67 67 66 66 65 66 66 68 69 70 70 71 71 71 71 70 70 69 68 67 66 64 62 60
12 12 12 13 16 20 24 30 37 44 50 54 58 60 62 62 63 63 63 61 60 58 56 54 51 48 44 43 46 51 58 61 61 58 54 49 48 49 53 53 50 47 44 42 42 42 42 42 42 43 45 48 52 57 61 63 62 60 58 60 63 66 69 68 67 66 66 66 67 68 69 70 71 71 71 71 71 71 70 70 71 71 71 71 70 69
14 14 15 18 22 27 33 39 45 52 58 61 62 63 64 64 65 65 64 63 62 60 57 55 52 50 48 46 48 53 61 65 64 60 56 51 49 50 53 54 52 48 44 42 42 42 43 43 44 45 48 51 56 61 66 67 66 64 63 65 68 70 70 69 68 67 66 66 67 68 69 70 70 71 71 70 70 70 70 70 71 71 71 72 72 72
15 16 19 24 29 36 42 48 54 58 63 66 66 66 66 66 66 66 66 64 62 60 58 56 54 52 52 52 53 57 64 68 67 63 58 53 50 50 53 54 52 48 45 44 44 44 45 45 46 48 51 55 60 64 69 70 70 69 68 70 71 72 72 70 69 68 67 67 67 68 69 70 70 71 71 71 70 70 70 71 71 71 71 71 71 71
18 21 26 32 38 44 51 57 61 64 67 68 69 69 68 68 68 67 65 63 61 59 58 57 56 56 56 56 57 60 65 68 67 64 60 56 52 50 52 53 52 48 45 45 46 47 47 46 47 49 53 57 62 66 71 73 73 73 72 73 73 74 73 72 71 70 69 69 69 70 71 72 72 72 72 72 72 72 72 72 72 72 72 72 72 72
24 28 36 43 49 54 58 62 66 68 70 71 71 71 71 70 68 66 63 62 60 60 60 60 60 60 60 60 60 62 66 68 68 65 62 56 52 50 52 53 52 50 47 46 47 48 48 47 48 50 54 58 63 68 73 75 76 74 74 74 74 75 74 74 73 72 72 72 73 74 75 74 74 74 74 74 74 74 74 74 73 73 73 72 72 72
32 38 46 53 58 62 64 66 68 70 72 73 73 74 73 71 69 66 64 63 64 64 65 65 64 64 64 63 62 63 65 67 68 67 64 57 51 48 50 53 53 51 48 48 48 48 48 47 48 51 55 60 64 68 73 76 77 77 76 76 76 76 76 76 76 75 75 76 76 78 78 78 78 78 78 78 78 77 76 74 74 73 72 72 71 71
44 50 55 61 65 68 69 69 70 71 73 74 74 74 73 73 72 71 69 68 69 69 69 68 66 65 64 63 62 62 62 65 67 67 65 58 52 48 50 53 54 53 50 50 50 49 48 47 48 51 55 59 63 67 73 77 80 80 79 78 78 79 79 80 80 80 80 81 82 82 83 84 84 84 83 81 79 77 75 74 72 71 70 69 69 69
55 60 63 66 68 70 71 71 72 72 73 74 76 76 76 76 74 73 72 72 72 72 72 69 66 64 62 60 60 60 60 64 66 67 66 60 54 50 51 55 56 54 51 50 50 50 47 46 47 50 55 58 62 66 72 76 81 83 83 82 82 83 84 84 85 85 86 86 86 86 86 86 85 83 81 79 77 75 73 72 70 70 69 69 68 68
63 66 68 70 71 72 73 74 74 74 74 76 77 77 76 74 73 72 71 72 72 72 71 68 64 61 59 58 57 57 58 62 65 66 66 61 56 52 52 57 58 57 52 50 50 50 48 45 46 49 54 56 60 64 70 76 80 84 85 86 86 86 86 86 87 87 87 87 86 86 84 83 81 80 78 77 76 74 73 72 71 70 70 70 70 69
68 70 71 72 73 74 75 75 75 74 74 74 74 73 73 72 70 69 68 69 70 70 68 66 62 60 58 57 56 56 57 60 63 66 66 62 58 54 54 58 60 59 54 51 50 50 49 46 46 48 51 54 57 61 66 72 77 82 85 86 87 87 87 86 86 86 85 84 83 82 80 79 78 78 77 76 76 74 73 72 71 70 70 70 70 69
71 72 73 74 74 74 74 73 72 72 72 72 73 74 74 72 71 69 68 69 69 69 68 65 62 59 57 56 56 56 56 59 62 66 67 63 60 57 56 60 62 62 58 54 52 51 50 48 47 47 48 50 53 57 62 68 73 78 82 84 86 86 86 85 85 84 83 82 81 80 79 78 78 77 77 76 74 73 71 70 69 68 68 68 68 67
71 72 72 72 71 70 70 69 69 69 70 72 73 74 74 74 72 71 70 70 70 70 68 65 63 60 58 58 57 56 57 59 62 66 68 64 61 60 60 64 66 66 63 58 54 51 50 49 48 47 46 47 49 52 57 62 67 72 76 80 82 84 84 84 84 83 82 81 80 80 79 78 78 77 76 74 72 70 68 67 66 66 66 66 65 65
68 68 68 67 67 66 66 67 68 69 71 73 74 74 74 74 74 72 72 72 71 70 69 66 64 63 61 60 58 57 57 58 63 67 69 66 64 62 64 67 68 68 68 62 56 50 48 48 48 47 46 45 46 48 51 56 61 66 71 74 78 80 82 82 82 82 82 81 80 80 79 78 77 76 74 72 70 67 65 64 64 64 64 63 64 64
64 63 63 63 64 64 66 67 69 70 72 73 74 74 74 74 74 73 73 73 72 71 70 67 66 65 65 62 60 58 57 58 64 68 71 68 66 64 65 67 68 69 71 68 61 53 46 46 47 48 48 46 45 46 48 52 56 60 65 68 72 75 77 79 80 80 80 80 79 78 78 76 75 74 71 69 67 65 63 63 63 63 63 62 62 63
60 60 60 62 64 65 67 69 70 72 73 73 74 74 74 73 73 73 73 74 73 72 70 69 68 68 68 67 64 61 58 60 65 70 72 70 67 65 65 66 67 68 71 73 70 62 52 46 46 48 50 48 46 45 46 49 53 56 60 63 66 69 72 74 75 76 76 76 76 76 75 74 72 70 68 66 64 63 62 63 63 63 63 62 62 63
59 60 61 63 66 68 70 71 72 73 73 73 72 72 71 71 71 71 73 74 74 73 72 71 70 70 70 70 68 65 62 63 67 71 72 70 67 65 65 66 66 67 70 74 75 72 64 54 48 47 49 48 47 46 47 49 51 54 56 58 60 63 65 68 69 70 71 72 72 71 70 69 68 66 64 63 62 62 62 63 63 64 63 62 62 63
60 62 65 67 69 71 72 73 74 74 73 72 71 69 68 68 69 70 72 74 74 74 74 74 73 72 72 71 69 67 65 66 69 72 73 72 69 67 66 67 67 68 68 71 73 74 71 63 56 51 49 48 48 48 48 50 51 53 55 57 58 59 60 62 63 64 65 65 66 65 65 64 63 62 61 61 61 61 62 62 63 63 63 63 63 64
64 67 70 71 73 74 74 74 74 73 72 70 69 67 66 66 68 70 72 74 76 76 76 76 76 74 74 72 70 68 66 68 70 73 74 74 72 70 68 68 68 69 69 70 71 71 71 67 63 58 53 49 48 49 50 51 52 52 54 56 58 58 58 60 60 60 60 60 60 60 60 60 60 59 59 60 60 60 61 61 62 62 63 64 66 68
68 71 73 74 74 74 74 73 73 72 70 68 67 66 66 66 67 69 71 74 76 76 77 77 77 77 76 74 72 70 67 68 70 73 75 76 74 73 71 70 70 70 71 71 71 71 71 68 66 63 59 52 49 48 50 52 52 53 54 56 58 60 60 61 61 60 59 58 58 58 58 58 58 58 58 58 58 58 59 60 60 60 62 65 69 74
72 73 74 74 73 72 72 71 71 70 68 67 67 66 66 66 67 68 70 73 75 77 78 78 79 78 78 76 74 72 69 68 70 72 74 76 76 74 73 71 71 72 73 72 72 72 71 69 66 64 62 58 53 50 49 51 52 53 54 56 58 60 62 63 63 62 61 60 58 58 58 57 57 57 57 57 58 58 58 58 59 61 64 69 74 79
73 73 73 73 72 71 70 69 69 68 68 67 67 68 68 68 68 68 70 72 74 76 78 78 79 78 78 76 74 73 71 70 71 72 74 75 76 76 74 72 72 72 73 74 73 73 72 70 68 65 63 60 57 54 51 51 52 53 55 57 59 61 63 64 65 64 63 61 60 58 58 57 57 57 57 57 57 58 58 58 61 65 70 75 80 84
72 72 72 71 70 69 68 68 68 68 68 69 69 69 69 69 69 69 70 72 74 76 77 77 77 76 76 74 74 73 72 72 73 74 74 76 76 76 76 74 73 72 73 74 74 74 74 73 70 68 64 61 58 56 54 53 53 54 56 58 60 61 63 64 65 65 64 62 61 60 59 59 58 58 58 58 58 58 60 61 66 71 76 81 84 87
71 70 69 69 68 68 68 68 68 69 70 70 70 70 70 70 70 70 71 73 74 76 76 76 76 74 73 73 73 74 74 74 75 76 76 77 77 78 78 76 75 74 74 74 76 76 76 75 73 70 67 62 58 55 53 53 54 56 58 58 60 61 63 65 66 66 66 65 64 62 61 61 62 62 61 61 61 62 63 66 71 76 82 85 86 87
68 68 67 67 67 68 68 68 69 70 71 71 70 70 70 70 70 71 72 74 75 76 77 76 75 74 73 73 74 74 76 76 77 78 78 78 79 78 78 78 76 76 76 76 76 77 77 76 74 70 67 63 60 56 53 54 56 59 62 62 61 61 62 64 66 67 67 66 66 64 63 63 63 63 63 63 64 66 68 72 77 81 86 87 87 86
66 66 66 66 66 67 68 69 71 72 72 71 71 71 71 71 72 72 73 74 76 76 77 76 76 74 73 73 74 74 76 77 78 78 78 79 79 79 78 78 78 77 77 76 76 76 76 75 73 69 66 63 60 58 55 56 58 63 67 67 66 64 62 64 66 68 68 66 66 65 65 65 65 65 65 66 68 70 74 79 82 85 88 88 88 87
67 67 66 66 66 68 69 71 72 73 72 72 72 72 73 74 74 75 76 76 76 76 77 77 76 74 72 71 71 72 74 75 76 76 77 78 78 78 77 77 77 77 77 76 76 74 74 74 72 70 67 65 64 62 59 60 62 67 71 72 71 68 64 64 65 67 68 66 65 66 66 67 67 67 67 68 71 74 79 83 85 86 86 87 88 88
68 68 68 68 68 69 70 72 73 74 74 74 74 75 76 77 78 78 78 77 77 77 77 76 76 74 71 69 68 68 69 71 74 75 76 77 77 77 77 76 77 77 78 77 76 74 73 73 73 72 71 70 69 68 66 66 68 71 74 76 76 73 68 64 64 65 66 66 66 66 67 68 68 69 69 71 74 77 81 82 83 84 84 86 87 88
70 70 69 69 69 70 72 74 75 76 76 76 77 78 79 80 80 80 79 78 78 77 77 76 74 73 70 68 67 66 66 69 72 75 77 79 79 79 78 78 78 78 79 79 78 76 74 73 73 73 74 74 74 73 73 73 74 74 76 77 78 76 73 68 66 66 65 65 65 66 68 69 70 70 71 73 76 77 79 79 80 81 84 87 88 88
71 71 71 71 71 72 74 76 77 78 78 79 79 80 80 81 81 81 80 79 78 77 76 76 74 72 69 68 67 67 67 69 72 75 78 80 81 81 81 80 80 80 80 80 79 78 77 76 74 74 74 76 76 76 76 77 77 77 76 77 76 75 72 70 68 67 65 64 64 66 68 70 72 72 72 74 74 76 76 77 79 82 86 88 88 88
73 73 73 73 73 74 76 76 78 79 80 80 80 80 80 80 80 80 80 80 78 77 76 76 74 72 70 68 68 69 70 70 72 74 77 80 81 82 82 82 82 81 81 80 80 80 80 80 79 78 78 77 76 76 77 78 78 78 77 76 74 72 69 67 66 66 65 64 65 67 70 72 74 74 74 74 74 74 75 78 82 86 88 88 88 87
74 74 74 74 74 75 76 77 78 79 79 79 78 78 78 79 79 80 80 79 78 77 76 74 72 71 70 70 71 72 74 74 74 74 76 78 79 80 80 81 81 81 81 81 81 81 81 81 81 81 80 79 77 76 76 77 78 78 76 75 73 70 67 65 64 64 65 66 67 69 71 74 75 76 76 76 74 74 75 80 84 88 88 88 88 87
76 76 76 76 76 76 76 78 79 79 79 78 77 77 77 79 80 80 80 79 78 77 75 73 71 70 69 70 72 75 77 77 76 76 76 77 78 78 78 79 79 79 79 80 80 80 80 79 78 78 78 78 78 77 76 76 76 76 76 74 72 70 66 64 63 64 66 67 69 71 74 76 77 78 78 77 76 75 76 80 84 88 88 88 88 87
77 77 76 76 76 77 78 79 80 80 79 78 76 76 77 78 80 80 80 79 78 76 74 73 72 71 71 72 74 76 78 79 79 78 78 78 78 79 78 78 78 78 77 76 76 76 74 73 72 73 74 78 80 79 77 76 76 76 76 75 74 71 68 65 65 66 68 69 71 73 75 77 79 80 81 80 78 77 78 81 84 87 88 88 88 87
78 78 78 78 78 79 80 81 81 81 80 78 77 76 76 78 79 80 80 79 78 76 76 75 74 74 74 76 76 78 79 80 80 79 78 78 80 80 80 79 78 78 76 74 73 72 70 67 66 67 72 78 81 83 81 80 79 78 76 76 75 74 71 69 68 69 70 71 72 74 75 77 79 81 83 83 82 80 79 80 82 86 89 89 88 88
78 78 79 79 80 81 82 82 82 81 80 79 78 78 77 77 78 78 79 78 78 77 77 77 77 78 78 78 78 79 80 81 80 78 77 78 80 81 80 80 80 80 78 76 74 71 69 65 63 63 67 75 81 85 85 84 83 81 78 76 76 75 74 72 72 72 72 73 74 74 76 77 79 82 84 84 83 81 78 77 78 82 87 88 89 88
Wind_Speed
57 57 57 57 57 57 57 56 55 55 55 55 55 54 54 53 52 52 50 49 48 47 46 45 43 42 40 39 37 36 35 34 33 32 32 31 30 30 29 29 29 29 29 29 29 29 29 30 30 31 32 32 33 33 33 34 34 34 34 34 34 35 35 35 36 36 37 38 38 39 39 40 40 41 41 42 42 42 42 42 42 42 42 41 41 41
57 57 57 57 56 56 56 56 55 54 54 54 54 53 53 52 51 50 49 47 46 44 43 42 41 40 38 36 35 34 33 32 31 30 30 29 28 27 27 26 26 26 26 26 27 27 28 29 30 31 31 32 32 33 33 33 33 33 34 34 34 35 35 36 36 37 38 38 39 39 40 40 41 41 42 42 42 42 42 42 42 42 42 42 42 42
57 57 57 56 56 55 55 55 55 54 53 53 53 52 51 50 49 48 46 45 44 42 41 40 39 38 37 35 33 32 31 31 30 29 28 27 26 25 25 25 25 25 25 25 26 27 28 29 30 31 32 32 33 33 33 33 33 34 34 34 34 35 35 36 37 37 38 39 40 40 41 41 41 42 42 42 42 42 43 43 43 43 43 43 43 43
56 56 56 56 55 55 54 54 54 53 53 52 51 51 50 48 47 46 44 43 42 40 39 38 37 36 35 34 33 31 30 29 28 27 26 25 24 24 24 24 24 24 25 26 27 28 29 30 31 32 32 33 33 33 33 33 33 34 34 34 35 35 36 37 38 38 39 40 40 41 41 42 42 42 42 43 43 43 43 43 43 43 43 43 43 43
56 55 55 55 54 54 54 53 52 52 51 51 50 49 48 46 45 44 42 41 40 39 38 37 36 35 35 34 32 31 29 28 27 26 25 24 23 23 23 24 24 25 26 27 28 29 30 31 32 32 32 32 32 32 32 33 33 33 34 34 35 36 37 38 38 39 40 40 41 41 42 42 42 43 43 43 43 43 44 44 44 44 44 44 44 44
55 55 54 54 53 53 53 52 51 50 50 49 48 47 45 44 43 42 41 40 39 38 38 37 36 35 34 33 32 30 28 27 26 25 24 23 23 23 24 24 25 26 27 28 29 30 30 31 31 31 31 31 31 31 32 32 33 33 34 35 36 36 37 38 39 39 40 41 41 41 42 42 42 43 43 43 44 44 44 44 44 45 45 45 45 45
55 54 53 52 52 52 51 51 50 49 48 48 47 46 44 43 41 40 40 40 39 39 38 37 36 34 33 32 30 29 28 26 25 24 23 23 23 24 25 26 26 27 28 29 29 30 30 30 30 30 29 29 29 30 30 31 32 33 34 35 36 37 38 38 39 40 40 40 41 41 41 42 42 42 43 43 44 44 45 45 45 45 45 45 45 45
53 53 52 51 51 51 50 49 48 46 46 45 45 44 43 42 41 40 39 39 39 38 38 37 36 34 32 30 29 28 27 26 25 24 24 24 25 25 26 27 28 28 28 29 29 29 29 29 28 28 28 28 28 29 29 30 31 32 34 35 36 37 38 38 39 39 39 39 40 40 40 41 41 42 42 43 43 44 44 45 45 45 45 45 45 45
51 51 51 50 49 48 49 48 47 45 43 43 43 42 42 42 41 41 40 39 38 37 37 36 35 33 31 29 27 27 27 26 26 26 26 26 27 27 28 28 29 29 29 28 28 28 28 27 27 27 26 27 27 28 29 30 31 32 34 35 36 37 37 38 38 38 38 38 38 38 39 39 40 40 41 41 42 42 43 43 44 44 44 44 44 44
50 49 49 49 48 47 46 46 45 44 42 41 41 41 40 40 41 41 41 39 38 36 35 35 34 33 31 28 27 26 27 27 27 27 28 28 29 29 29 29 29 29 28 28 27 27 27 26 26 26 26 26 27 28 29 30 31 33 34 35 36 36 37 36 36 36 36 36 36 36 36 37 37 38 38 39 39 40 40 41 41 41 42 42 42 42
49 49 48 47 47 46 45 44 43 43 41 41 40 41 40 39 39 39 40 40 38 36 35 34 32 31 30 29 28 28 28 29 29 29 29 29 29 30 30 30 29 29 28 27 27 26 26 26 25 25 25 26 26 27 29 30 31 33 34 35 35 35 35 35 34 34 33 33 33 33 33 33 34 34 34 35 35 36 36 36 37 37 37 38 38 38
48 47 47 46 46 45 44 43 42 41 40 40 40 40 40 39 38 38 39 39 38 36 35 34 32 30 29 29 30 30 31 32 32 31 30 29 29 29 30 30 29 28 28 27 26 26 25 25 25 25 25 26 26 27 28 30 31 33 34 34 34 34 33 32 32 30 30 29 29 29 29 29 29 29 29 30 30 30 31 31 32 32 32 32 33 33
46 46 45 45 44 43 43 42 41 41 40 39 39 39 39 39 38 37 37 37 36 36 35 34 33 31 29 29 31 32 33 34 34 33 31 30 29 30 31 31 30 29 28 28 27 26 26 25 25 25 25 26 26 27 28 29 31 32 33 34 33 32 31 29 28 27 26 25 25 25 24 24 24 24 24 24 24 25 25 26 26 27 27 27 28 28
45 45 44 44 43 42 41 41 40 40 39 38 38 38 38 38 37 36 36 36 35 35 34 34 34 32 30 30 31 33 35 36 36 35 33 31 30 30 31 31 31 30 29 28 27 27 26 26 26 26 25 25 26 26 27 29 30 32 32 32 31 30 28 26 24 23 22 21 21 20 20 20 19 19 19 19 20 20 20 21 21 22 22 23 23 24
44 44 43 43 42 41 40 39 39 39 38 37 37 36 37 36 35 35 35 35 35 35 35 35 35 34 32 32 32 34 35 37 37 36 35 32 31 30 31 32 31 30 29 29 28 27 26 26 26 26 25 25 25 25 26 28 30 31 31 30 29 27 24 22 21 20 19 18 18 17 17 16 16 16 16 16 16 16 17 17 17 18 19 19 20 21
43 42 42 42 41 40 39 38 38 37 37 36 35 35 35 35 34 34 34 35 35 36 36 37 37 36 34 32 32 34 36 37 38 38 37 34 31 30 31 31 31 30 29 29 28 27 27 26 26 25 24 24 24 24 25 27 29 30 30 28 26 24 21 20 18 17 17 16 15 15 15 14 14 14 14 14 14 14 15 15 15 16 16 17 17 18
41 41 41 41 40 39 38 37 36 36 35 35 34 34 34 34 34 34 34 35 36 37 38 38 39 39 38 35 33 33 35 37 38 38 37 35 32 30 30 31 31 31 30 29 28 27 27 26 25 24 23 22 22 23 24 26 28 29 28 27 24 22 19 18 17 16 15 15 14 14 14 14 14 14 14 14 14 14 15 15 15 16 16 16 16 17
40 40 40 40 39 38 37 36 35 34 34 33 33 33 33 33 33 34 35 36 37 38 39 39 39 40 40 38 36 34 35 37 38 38 38 35 32 30 29 30 31 31 30 29 28 27 26 25 24 22 21 21 21 22 23 25 27 28 27 25 23 20 18 17 16 15 15 14 14 14 14 14 14 15 15 15 16 16 16 17 17 17 18 18 18 18
40 39 38 38 38 37 36 34 33 32 32 32 33 33 33 33 34 34 35 36 37 38 39 39 39 39 40 40 38 36 35 36 38 38 37 35 32 30 29 30 31 31 30 29 27 27 26 24 22 21 20 19 19 20 22 24 25 26 25 24 21 19 17 16 16 15 15 15 14 14 15 15 16 16 16 17 17 18 18 19 19 20 20 20 20 20
39 38 36 36 36 36 35 33 31 30 30 31 32 33 34 34 35 36 36 37 38 39 39 39 40 40 40 40 38 37 36 36 37 37 37 35 32 30 29 31 32 32 31 29 28 27 26 24 22 20 18 18 18 19 20 22 24 24 24 22 20 18 17 16 16 16 15 15 15 15 15 16 16 17 18 18 19 19 20 20 21 21 22 22 23 23
38 37 35 34 33 34 33 32 30 29 29 30 32 33 34 35 36 37 37 38 39 39 39 39 40 40 40 39 38 36 35 34 35 36 36 35 33 31 30 31 33 33 32 30 28 27 26 23 21 19 17 17 17 18 19 21 22 23 23 22 20 18 17 17 16 16 16 16 16 16 16 17 17 18 19 19 20 20 21 22 22 23 23 24 24 25
36 35 34 32 31 31 31 30 29 28 29 30 31 33 34 35 37 37 38 38 39 39 39 39 39 39 38 38 37 35 33 32 33 34 36 36 34 32 31 32 34 34 33 31 29 28 26 23 20 18 17 17 17 18 18 19 20 21 22 21 20 19 18 17 17 17 17 17 17 17 18 18 19 19 20 21 21 22 23 23 24 25 25 26 26 27
33 33 32 31 30 29 29 29 29 29 29 30 31 33 34 35 36 37 38 38 39 39 39 39 39 38 37 36 34 32 30 29 30 32 35 36 36 34 33 34 35 35 34 32 31 29 26 23 20 18 17 17 17 17 17 18 19 20 21 21 20 19 19 18 18 18 18 18 19 19 20 20 20 21 22 22 23 23 24 25 26 27 27 28 28 29
31 31 30 29 28 28 28 29 29 30 30 31 32 33 34 35 35 36 37 37 38 38 38 38 38 37 35 33 31 29 27 27 29 32 34 37 37 36 34 35 35 36 34 33 31 30 27 23 20 18 18 18 18 17 17 16 17 18 20 20 20 20 20 19 19 20 20 21 21 21 21 22 22 22 23 23 24 25 26 26 27 28 29 30 31 31
29 29 28 28 28 28 28 29 30 30 31 31 32 32 33 34 34 35 35 35 36 37 37 37 37 35 33 31 29 27 26 26 28 31 34 36 37 37 35 35 36 36 35 33 31 30 28 24 21 19 19 19 18 17 16 15 15 17 19 20 20 21 21 21 21 22 23 23 23 23 23 23 24 24 24 25 25 26 27 28 29 29 30 31 32 33
27 27 27 28 28 28 29 29 30 30 31 31 32 33 33 34 34 34 34 34 34 35 36 36 36 34 32 31 29 27 26 26 28 30 33 36 37 37 35 35 36 36 36 34 33 31 30 26 23 21 20 19 18 16 14 13 14 15 17 19 20 21 22 23 24 24 25 25 25 25 25 25 25 25 25 26 26 27 28 28 29 30 31 32 33 34
25 26 26 27 28 28 29 29 29 30 30 30 31 32 33 34 34 34 34 34 34 35 36 36 35 34 32 30 29 27 27 27 28 30 33 35 37 37 36 36 36 37 37 36 35 33 32 29 26 23 21 20 17 15 14 13 13 14 15 17 19 21 23 24 25 26 26 27 27 27 27 27 27 27 27 27 27 28 28 29 30 31 32 33 34 35
25 25 26 27 27 28 29 29 29 29 29 29 30 31 32 33 34 35 35 34 35 35 35 34 34 33 32 31 29 28 27 27 28 30 33 35 37 38 37 37 37 38 38 38 37 35 33 31 28 26 23 20 18 16 15 14 14 14 15 16 18 21 23 25 26 27 27 28 28 28 28 28 28 28 28 28 28 29 29 30 31 32 33 35 35 36
25 25 26 27 27 28 28 28 28 27 28 28 29 30 31 33 34 34 35 35 35 34 33 33 32 31 31 31 30 29 27 27 28 31 33 35 37 38 37 37 38 38 39 40 39 37 34 32 30 28 26 23 20 18 17 17 16 15 15 16 17 20 22 24 26 27 28 28 28 29 29 29 29 29 29 29 29 30 30 31 32 33 35 36 36 37
25 26 26 26 26 26 26 26 26 26 27 27 28 29 31 32 33 34 34 34 34 33 32 31 30 30 30 31 31 30 28 27 28 31 33 36 37 38 38 38 37 38 39 40 41 40 37 33 31 31 29 26 23 21 20 19 18 17 16 16 17 18 20 23 25 26 27 28 28 29 29 29 29 30 30 30 30 31 31 32 33 34 36 37 37 38
26 26 26 25 25 25 25 25 25 26 26 27 28 29 30 31 32 33 33 33 33 32 31 30 29 29 29 31 32 32 30 29 29 30 33 35 37 38 38 38 38 37 38 39 41 43 42 37 33 32 31 30 27 24 22 21 20 19 18 17 16 17 19 21 24 26 27 28 28 29 29 30 30 30 30 31 31 31 32 33 34 35 36 37 38 38
27 26 26 25 24 24 24 24 25 25 26 27 28 28 29 30 31 32 32 32 31 31 30 29 29 29 29 30 31 32 32 30 30 31 33 35 37 38 38 39 39 38 37 38 39 41 43 42 39 35 34 32 30 27 24 23 23 22 20 18 17 17 18 20 23 25 26 27 28 29 29 30 30 30 31 31 32 32 33 33 34 35 36 38 38 39
27 26 25 24 23 23 23 24 24 25 26 26 27 28 29 30 30 30 30 30 30 29 29 29 29 29 29 30 31 32 32 31 30 31 33 35 37 38 39 39 39 39 38 38 38 39 41 43 42 40 37 35 32 30 28 26 25 24 23 21 19 18 18 20 22 24 25 27 28 28 29 29 30 31 31 32 32 33 33 34 34 35 36 37 38 39
26 25 24 24 23 23 23 23 24 24 25 26 27 27 28 29 29 29 28 28 28 27 28 28 28 29 30 32 33 33 32 31 30 31 33 35 37 39 39 39 39 39 39 39 39 39 40 41 42 42 40 37 34 32 31 30 28 26 24 23 22 21 20 21 22 24 25 26 27 28 28 29 30 31 31 32 32 33 33 34 34 34 35 36 37 38
25 24 23 23 22 22 22 22 23 24 24 25 26 27 28 28 28 27 27 26 26 26 26 27 28 29 31 32 34 34 33 32 31 31 33 34 36 38 39 39 39 39 39 40 40 40 41 41 42 42 42 40 37 34 33 32 31 28 26 25 25 24 23 23 24 25 25 26 26 27 28 29 30 30 31 31 32 32 33 33 33 33 33 34 35 36
25 23 23 22 22 22 22 22 23 23 24 25 26 26 27 27 27 26 25 24 24 24 25 25 27 28 30 32 34 35 34 33 32 31 32 34 35 37 38 38 38 38 38 39 40 41 42 42 42 42 43 43 41 38 35 33 31 30 28 27 26 25 25 25 25 26 26 26 26 27 27 28 29 29 30 30 31 31 31 31 31 31 32 32 33 34
24 23 23 22 22 22 22 22 23 23 24 25 26 26 26 26 26 25 25 24 23 23 24 25 26 27 29 30 32 33 34 33 32 31 31 32 34 35 37 38 37 37 37 38 39 40 42 43 44 43 43 43 43 41 38 35 33 31 30 28 27 26 26 26 26 27 28 28 27 27 27 27 28 28 29 29 29 30 30 30 30 30 30 30 31 31
23 23 23 23 23 23 23 23 23 24 25 25 26 26 26 26 26 25 24 23 23 23 24 25 25 26 27 29 30 31 31 31 31 31 31 31 32 33 35 36 36 36 35 36 38 39 41 42 44 44 44 44 43 41 40 37 35 33 31 29 27 27 27 27 27 28 29 29 29 28 28 28 28 29 29 29 29 29 29 28 28 28 28 28 29 29
23 23 23 23 23 23 23 24 24 25 25 26 26 26 27 26 25 25 24 24 23 24 24 25 26 27 27 27 28 28 28 29 29 29 29 29 30 31 33 34 35 35 35 35 36 37 39 41 42 44 44 44 43 41 39 37 35 34 32 30 28 27 27 27 28 29 30 30 30 30 30 29 30 30 30 29 29 29 28 28 27 27 27 27 28 29
24 24 24 23 23 23 24 24 25 26 26 26 27 27 27 26 25 25 24 24 24 24 25 26 27 27 27 26 26 26 26 26 26 27 27 28 28 29 31 32 33 34 34 35 36 37 38 40 41 42 43 44 44 42 40 37 35 33 33 32 31 29 27 27 28 29 30 30 31 31 31 31 31 30 30 30 29 28 28 27 27 26 26 27 28 29
24 24 24 24 23 24 24 25 25 26 27 27 27 27 27 26 26 25 24 24 24 25 26 26 27 27 26 25 24 24 24 24 24 25 26 26 27 28 29 31 32 34 35 36 37 38 38 40 41 41 42 42 42 41 39 36 34 33 32 33 32 31 30 29 29 29 30 31 31 31 32 32 31 31 30 29 28 27 27 26 26 26 26 26 27 28
24 24 24 24 24 24 24 25 25 26 27 28 27 27 27 27 27 27 26 26 26 26 26 27 27 27 26 24 23 22 22 22 23 24 25 26 27 28 29 31 32 34 35 37 38 38 39 39 40 40 40 41 41 40 38 36 33 32 31 31 32 32 31 29 29 29 30 31 31 31 31 31 31 30 30 28 27 26 25 24 24 25 25 26 27 28
24 24 25 24 24 24 24 25 26 27 27 27 27 27 27 27 28 28 28 28 28 27 27 27 28 28 27 25 23 22 21 21 22 23 24 26 27 28 30 31 32 34 35 37 38 38 38 38 38 38 38 39 39 39 38 35 33 31 29 29 30 32 32 31 30 29 30 30 30 30 30 30 30 29 28 27 25 24 23 23 23 24 24 25 26 26
25 25 25 24 24 24 25 26 26 27 27 27 27 27 27 28 28 29 29 29 29 28 28 28 28 28 28 27 26 24 23 22 22 23 25 26 28 29 30 32 33 33 34 36 36 37 37 37 37 36 36 36 36 36 35 34 32 30 28 28 29 30 32 32 32 31 31 30 29 28 28 28 28 28 27 25 24 23 22 22 23 23 24 24 25 25
25 25 25 25 25 25 26 26 27 27 27 27 27 27 28 28 29 29 30 30 30 29 28 28 28 29 29 28 28 28 26 25 25 25 26 27 28 29 30 31 32 33 33 34 34 35 36 36 36 35 35 34 34 33 32 31 30 29 28 27 28 29 30 31 31 31 31 29 28 27 27 27 27 27 26 24 23 22 22 23 23 23 23 23 23 24
25 26 25 25 25 26 26 27 27 27 27 27 27 28 28 29 29 29 30 30 30 29 29 28 29 29 29 30 30 30 30 30 29 29 28 28 29 29 30 31 32 32 32 33 33 33 33 34 34 34 33 32 31 29 28 28 28 28 28 28 28 29 29 29 29 29 29 29 28 27 26 26 26 26 26 25 24 23 23 23 23 23 23 22 22 23
26 26 26 26 26 26 26 27 27 27 27 27 27 28 28 29 29 29 29 29 29 29 29 28 28 29 29 30 31 32 33 34 33 33 32 31 31 31 31 31 31 32 32 32 31 31 31 31 31 31 31 31 30 28 26 25 26 27 28 29 29 30 30 29 28 28 28 28 28 27 27 27 27 27 27 26 25 24 23 23 23 22 22 21 21 22
26 26 26 26 26 27 27 27 27 28 28 28 28 28 28 28 29 29 29 29 29 29 29 29 29 29 30 30 32 33 34 35 36 35 35 34 34 33 33 33 32 32 31 31 30 30 30 29 28 28 28 29 29 28 26 26 26 27 29 29 30 31 30 30 29 28 28 28 28 28 27 28 28 28 28 28 27 26 25 23 22 21 20 20 20 21
27 27 27 27 27 27 27 27 28 28 28 28 28 28 27 27 28 28 28 28 28 28 29 29 30 30 31 32 33 34 35 36 36 36 36 36 35 35 35 35 34 33 32 31 30 30 29 27 26 26 26 27 29 29 29 28 28 29 29 30 31 32 32 31 30 30 29 29 29 28 27 28 28 29 29 30 29 28 26 24 21 19 18 18 19 20
27 27 27 28 28 28 28 28 28 28 29 29 29 28 28 27 27 27 27 27 28 29 29 30 31 32 33 34 34 35 35 36 36 36 36 36 36 35 35 35 35 34 34 33 32 31 30 28 25 23 24 26 28 30 31 32 31 31 31 31 31 32 32 32 32 31 31 30 29 28 27 27 28 28 29 30 30 29 27 24 20 18 16 17 18 18
27 27 28 28 28 27 27 27 28 28 29 29 29 29 28 27 27 27 27 28 28 29 30 31 32 33 34 35 35 36 36 36 36 36 36 35 35 35 34 34 34 34 34 34 33 33 32 30 27 24 23 24 27 30 32 33 33 33 32 32 31 32 32 33 32 32 31 30 29 28 28 27 28 28 29 30 30 29 27 24 20 17 16 17 18 18
Wind_Direction
310 309 309 309 309 308 308 307 307 307 306 306 306 305 305 305 305 305 304 304 304 303 303 302 302 302 301 301 302 302 301 301 300 299 298 296 294 293 291 290 288 286 285 284 283 282 281 280 280 279 279 279 279 279 280 280 281 281 281 281 281 281 280 279 279 278 277 276 275 274 273 272 272 271 271 271 271 271 271 271 271 270 270 270 269 268
309 309 309 309 308 308 307 307 307 307 306 306 306 306 306 305 305 305 304 304 304 303 303 303 303 303 304 304 304 304 304 303 302 300 299 297 296 294 293 291 289 287 286 285 284 284 283 282 282 281 282 282 282 283 283 283 283 283 283 283 282 282 281 280 279 278 277 276 275 274 273 273 273 272 272 272 272 272 271 271 271 271 271 270 269 269
309 309 309 308 308 308 307 307 307 307 306 306 306 306 306 305 305 305 305 304 304 304 304 304 305 306 306 307 307 307 306 305 303 302 301 300 298 297 295 293 292 291 290 289 288 288 287 287 286 286 286 287 287 287 287 286 286 285 285 284 283 282 281 280 279 278 277 277 276 276 276 275 275 275 275 274 274 274 274 273 273 272 271 271 270 269
309 309 309 308 308 308 307 307 307 307 307 307 306 306 306 306 305 305 305 305 305 305 306 307 307 308 308 309 309 309 308 307 306 305 304 303 302 300 299 297 295 294 294 293 292 292 291 290 290 290 290 290 289 289 288 287 286 285 285 284 283 282 281 280 279 278 278 278 278 277 278 278 278 278 278 277 277 277 276 275 275 274 273 272 271 271
309 309 309 308 308 307 307 307 307 307 307 307 306 306 306 306 306 306 306 307 307 308 308 309 310 311 311 312 312 312 311 310 309 308 308 306 304 302 300 299 298 297 296 295 294 293 292 292 291 291 290 290 289 288 286 285 284 284 283 282 281 280 279 278 278 278 278 278 278 278 279 279 279 279 279 279 279 278 278 277 276 276 275 274 273 273
309 309 309 308 308 307 307 307 307 307 307 307 307 307 307 307 307 308 309 310 310 311 311 312 313 313 314 314 315 314 313 311 310 310 309 307 305 303 301 299 298 297 296 295 294 293 292 291 291 290 289 288 286 285 284 283 282 281 280 280 279 278 277 277 277 277 277 278 278 279 279 280 280 280 280 280 280 279 278 278 277 276 276 275 274 273
309 309 308 308 307 307 307 307 308 308 308 307 307 307 308 308 309 310 311 312 313 313 314 314 314 315 316 316 316 315 313 311 310 310 309 307 306 304 301 300 298 297 296 295 293 293 292 291 290 288 287 285 284 282 281 280 280 279 278 277 277 276 276 276 277 277 277 278 279 279 280 280 281 281 280 280 279 279 278 277 277 276 275 274 273 273
308 308 308 307 307 307 308 308 308 308 308 308 309 309 310 311 312 313 313 314 314 315 316 315 315 316 316 316 316 314 313 312 311 310 309 308 306 304 302 300 298 297 296 295 294 293 292 291 289 288 286 284 283 281 280 279 278 277 277 276 276 276 276 276 277 277 278 279 280 281 281 281 281 281 280 280 279 278 277 276 275 274 273 273 272 271
307 307 307 307 307 307 308 308 308 309 310 310 311 313 314 314 315 315 315 315 315 316 316 315 315 315 316 316 315 314 313 312 313 312 311 310 307 305 303 300 299 297 296 296 295 294 293 292 291 289 287 286 284 283 281 280 279 278 277 276 276 276 277 278 279 280 281 282 283 283 283 282 281 280 279 278 278 277 276 276 275 274 273 272 271 270
307 307 307 307 308 308 308 308 309 310 312 314 315 316 316 316 316 315 315 315 315 316 315 314 314 315 316 316 316 315 313 313 313 313 312 310 308 306 303 301 300 299 298 297 297 296 295 294 292 291 289 288 286 285 283 282 280 279 278 278 278 278 279 280 282 283 284 285 285 284 283 282 281 280 279 278 278 277 277 277 276 275 274 273 272 271
308 308 308 308 309 309 309 310 311 313 315 317 317 317 317 317 316 315 314 314 315 316 315 314 314 315 317 317 317 317 315 313 312 312 311 309 307 306 304 303 302 302 301 300 299 298 297 296 294 292 291 289 288 286 285 283 281 280 279 279 280 281 282 284 286 287 287 286 285 284 282 281 281 280 280 280 280 279 279 279 278 278 277 275 274 273
309 309 309 309 310 310 311 312 314 316 318 319 318 317 316 316 316 315 314 314 315 316 315 314 315 316 318 319 319 318 316 314 313 312 311 310 309 307 306 306 305 305 304 303 302 300 299 297 295 293 292 290 289 287 285 284 282 281 280 280 282 283 285 287 288 288 287 286 284 283 283 283 283 283 283 283 283 282 282 282 281 280 279 278 277 275
309 310 310 310 311 312 314 316 317 318 319 319 318 316 315 315 315 315 314 314 315 315 315 315 315 317 319 319 319 318 317 315 314 313 313 313 313 312 311 310 309 308 307 305 304 303 301 299 296 294 292 291 289 287 285 283 282 281 281 281 283 285 287 288 288 287 286 285 284 284 285 285 286 286 286 286 286 285 285 284 284 283 282 281 280 278
310 311 311 312 313 314 316 317 318 317 318 317 316 315 314 314 315 315 315 314 315 315 315 314 315 317 319 320 320 320 318 317 316 315 315 316 317 317 315 313 311 310 309 308 307 305 304 301 298 295 293 291 289 287 285 283 281 281 281 283 285 287 288 288 287 286 285 285 286 286 287 288 288 289 289 289 289 288 288 287 287 286 285 284 283 281
311 312 312 313 314 315 316 317 317 316 316 316 315 314 314 314 315 315 315 315 315 315 315 315 315 317 319 321 322 322 321 320 319 318 317 318 319 320 318 315 313 311 311 310 309 307 305 303 300 296 294 291 289 288 286 284 282 282 282 284 286 287 288 287 286 285 285 286 286 287 289 290 291 292 292 293 293 293 294 293 292 291 290 288 287 284
312 313 313 314 314 315 315 316 316 316 316 316 315 314 314 314 315 316 315 315 315 316 316 316 316 317 319 321 324 325 324 322 321 319 318 318 320 321 319 316 314 313 312 312 311 309 307 303 300 298 295 293 291 289 288 286 284 283 284 285 286 287 286 285 284 283 284 284 285 287 288 290 291 293 294 296 298 299 300 300 300 299 297 295 293 290
312 312 312 313 313 314 315 315 316 316 316 315 314 314 314 315 315 316 316 315 315 315 316 316 317 318 320 322 325 327 327 324 321 318 317 318 320 322 320 317 315 314 313 313 312 311 309 306 303 300 298 296 294 292 290 287 285 284 285 285 286 285 283 282 281 280 281 281 283 285 287 289 291 293 296 298 301 303 304 304 304 304 302 301 299 297
310 311 311 312 313 313 314 315 316 316 316 315 314 314 314 315 316 316 315 315 315 315 315 316 317 319 321 323 327 329 328 324 320 318 316 317 320 321 320 317 315 314 314 314 314 313 311 309 307 305 302 300 298 295 292 288 285 284 284 284 284 282 280 278 277 277 277 279 281 284 287 289 292 294 297 299 302 303 304 304 304 304 304 303 302 300
309 310 311 312 313 313 314 315 316 317 316 315 315 314 315 315 316 315 314 314 314 314 315 316 318 320 322 323 326 328 328 323 319 317 316 316 319 321 320 317 315 314 315 316 317 316 314 312 310 308 305 303 300 297 292 288 285 284 283 282 281 278 276 275 274 275 276 278 281 284 288 291 293 295 298 300 301 302 303 303 303 303 302 302 301 300
310 310 312 313 313 313 314 316 317 317 316 315 315 315 315 315 314 314 313 313 314 315 316 318 320 321 322 322 325 327 326 322 318 316 315 315 318 320 320 318 316 315 316 318 319 319 317 314 312 310 308 306 303 300 295 290 286 284 282 280 278 275 273 273 273 275 277 280 283 286 289 292 294 296 298 299 300 301 302 302 302 302 302 301 301 300
310 311 313 313 313 313 314 316 317 317 316 315 315 314 314 313 313 313 313 314 315 316 317 318 319 320 320 321 323 325 324 321 317 315 314 314 316 319 320 319 317 317 318 320 320 319 317 316 314 313 312 311 310 307 301 294 289 285 281 278 275 273 272 272 274 276 279 282 285 287 289 291 293 295 297 298 299 300 301 301 302 302 302 301 301 300
311 312 313 314 314 314 314 316 316 316 316 314 313 312 312 312 312 313 314 315 315 316 316 317 317 317 318 319 321 323 322 319 316 315 314 314 316 318 321 320 319 318 319 320 321 319 318 317 316 316 317 317 316 313 306 298 290 285 280 277 274 272 272 274 276 279 281 283 285 286 288 290 291 293 295 296 298 299 300 301 302 302 302 301 300 299
311 312 313 314 314 314 314 315 315 315 314 313 311 311 311 311 312 312 313 313 314 314 314 314 314 315 316 317 319 320 320 319 317 316 315 315 316 319 321 321 320 319 319 320 320 319 317 316 317 319 320 321 320 317 310 300 292 284 279 276 274 273 274 276 278 281 282 283 283 284 285 286 288 290 292 294 296 298 299 301 301 302 301 301 300 299
312 313 313 314 314 314 314 314 314 314 313 312 311 311 310 309 309 309 310 311 311 311 311 311 312 313 315 316 317 318 320 320 319 318 317 316 316 318 321 321 320 319 318 319 320 319 317 316 317 320 322 323 323 319 313 303 292 283 278 274 273 273 274 276 277 278 278 278 278 279 280 282 284 287 289 292 294 296 298 299 300 300 300 299 298 297
313 313 314 314 314 314 314 313 313 312 311 310 309 307 306 305 305 306 307 309 309 309 309 309 310 312 314 315 317 319 322 323 322 320 318 316 315 317 320 321 320 319 318 319 319 318 317 316 318 321 322 323 322 320 314 304 291 281 275 271 270 271 272 273 273 274 274 274 275 276 278 280 283 286 288 291 293 294 296 297 298 298 297 297 296 296
313 313 314 314 313 313 312 311 309 308 307 306 305 304 304 304 305 307 308 309 310 309 309 310 311 313 314 315 318 321 325 326 325 322 318 315 315 316 319 321 320 319 319 319 320 319 318 318 318 320 320 320 320 318 314 305 291 280 272 268 267 267 268 269 270 271 272 274 275 277 279 281 283 285 287 289 291 292 293 294 294 294 294 294 293 293
313 312 312 311 310 309 308 306 305 305 305 304 305 305 306 307 308 310 311 312 311 310 310 311 312 314 315 316 318 322 326 328 326 322 318 315 315 316 319 321 321 321 320 320 320 320 319 319 318 318 317 316 316 317 315 309 297 285 275 269 266 264 265 266 268 270 271 273 275 277 279 281 282 284 285 287 288 289 290 291 291 291 291 291 291 291
311 310 309 308 307 305 304 304 304 304 305 306 306 307 308 309 310 311 312 312 312 311 311 312 313 314 315 316 318 321 326 329 327 322 318 316 315 317 320 321 322 321 321 320 320 320 319 319 318 318 316 315 314 316 317 314 307 297 285 275 268 265 264 264 266 268 270 272 274 276 278 280 281 282 283 285 286 287 287 288 289 289 289 289 290 291
310 308 307 306 305 305 304 305 305 306 307 308 309 310 310 311 311 311 312 312 312 311 311 311 312 313 314 315 316 320 325 329 327 323 319 317 316 317 320 320 321 321 321 320 320 319 319 320 320 320 318 315 314 314 316 316 312 305 293 282 273 268 265 265 266 267 269 271 273 274 276 278 279 280 282 283 284 285 286 287 288 288 288 289 290 291
309 308 308 307 307 307 307 308 308 310 310 311 312 312 312 312 311 311 312 311 311 310 310 310 311 312 313 314 316 319 324 328 328 324 320 317 316 317 318 318 319 320 321 321 320 319 319 321 322 322 320 317 315 314 314 315 313 308 299 288 278 271 268 267 267 267 268 270 271 273 274 276 277 279 280 282 283 284 285 286 287 288 288 289 290 291
312 312 311 311 311 311 311 311 312 313 313 313 313 313 312 312 312 312 311 311 310 310 309 309 310 311 312 314 315 318 323 328 328 324 319 316 315 315 316 317 318 319 320 321 320 320 319 320 322 323 322 319 317 315 315 315 314 311 305 295 285 277 273 270 269 269 269 270 271 272 274 275 277 278 280 281 282 284 285 286 287 287 288 289 290 291
316 316 316 316 315 315 315 315 315 315 314 314 314 314 313 313 313 313 313 312 311 310 309 309 310 311 312 312 314 317 321 326 326 323 319 316 315 315 315 316 316 317 318 318 318 318 318 318 320 322 322 321 320 319 318 317 316 313 309 303 294 285 279 276 273 272 271 271 272 273 274 275 277 278 280 281 282 283 284 285 286 287 288 289 291 291
320 320 320 319 319 318 318 317 316 315 315 315 315 315 316 316 317 316 316 314 312 311 310 310 310 310 311 311 313 315 319 323 324 322 319 316 315 314 315 315 315 315 316 316 315 316 316 316 318 320 321 321 322 321 320 319 317 314 311 307 301 294 288 283 280 278 276 275 274 275 275 276 277 278 280 281 282 283 283 284 285 287 288 289 291 291
322 322 321 321 320 319 318 317 316 315 315 316 316 317 319 320 320 320 319 317 315 313 311 310 310 310 311 312 312 314 318 321 322 321 318 316 315 314 314 313 314 314 314 314 314 314 314 315 317 318 319 320 321 322 322 320 318 315 312 310 307 302 297 293 289 285 282 280 279 279 278 278 279 279 280 281 281 282 282 283 284 286 287 289 290 291
322 322 321 320 319 318 317 316 316 316 316 317 318 320 321 323 324 324 322 320 318 315 313 311 310 310 311 312 313 314 316 319 320 320 318 315 314 313 312 312 312 313 313 313 313 314 314 314 315 317 318 318 319 320 321 321 319 316 313 311 309 306 304 300 296 292 289 286 285 283 282 281 281 281 281 281 281 282 282 283 285 286 287 289 289 290
321 321 319 318 317 316 316 316 316 316 317 319 320 322 324 325 326 325 325 323 320 317 314 312 311 310 310 311 312 313 316 318 319 319 317 315 313 312 311 311 312 312 312 312 313 313 313 313 314 316 317 317 318 319 320 320 318 316 314 312 310 308 306 304 301 298 295 292 290 288 287 285 284 284 283 283 283 283 284 285 287 288 289 289 288 288
320 320 319 318 317 316 316 317 318 318 320 321 322 324 325 326 326 326 325 324 322 319 316 313 311 310 310 310 312 313 316 318 319 319 317 316 314 312 311 311 311 312 312 312 312 312 313 313 313 315 315 316 317 318 319 319 318 317 315 313 311 309 307 305 303 301 300 298 296 294 293 291 290 289 288 288 288 288 288 289 290 290 289 288 287 286
320 320 319 319 318 318 319 320 321 322 323 325 326 326 326 326 326 326 325 324 322 320 317 315 313 312 312 312 313 315 317 319 320 320 318 317 315 313 311 311 311 312 312 312 312 312 312 312 313 314 314 315 316 317 318 318 318 318 316 314 311 309 308 306 305 304 303 302 301 300 299 298 297 296 295 294 293 293 293 293 292 291 289 287 286 284
320 321 321 320 321 321 322 324 325 326 327 328 328 328 327 327 326 325 325 324 323 321 319 317 316 315 316 317 318 320 321 321 321 320 319 317 315 313 312 312 312 312 313 312 312 311 311 311 312 312 313 314 315 315 316 317 318 318 317 314 311 309 308 307 306 305 305 305 304 304 304 303 302 301 300 299 299 298 297 296 295 293 291 288 286 284
321 322 322 323 323 325 326 328 329 329 330 331 330 330 329 328 327 326 326 325 324 322 321 319 318 318 319 322 323 324 324 323 322 320 319 317 316 315 314 313 313 314 314 313 312 312 311 311 311 311 312 313 314 314 316 317 319 319 318 315 312 310 309 308 307 306 306 306 306 306 306 305 304 303 302 302 302 301 300 299 297 295 293 291 289 286
323 324 324 325 326 327 329 330 332 333 333 333 333 332 331 330 329 329 328 327 326 324 322 320 319 320 322 324 326 327 325 324 322 321 320 319 318 317 316 316 315 316 315 314 314 313 312 312 312 312 312 313 313 314 315 317 320 320 318 316 313 311 309 308 308 307 306 306 306 307 307 306 305 304 303 303 302 302 300 299 297 295 294 292 291 290
326 326 326 327 328 330 332 333 335 335 336 335 335 334 334 332 331 330 329 328 327 325 324 322 321 321 323 325 328 328 327 326 325 324 323 322 321 320 319 318 318 318 317 316 315 314 313 313 313 313 313 314 314 314 316 318 319 319 318 315 312 309 307 307 307 307 307 307 307 307 307 306 305 304 303 302 301 300 298 297 296 296 295 294 293 291
329 329 329 329 331 333 335 336 337 337 337 337 336 336 335 334 332 330 329 328 327 326 325 324 323 323 324 326 328 330 330 330 329 328 326 325 323 322 321 321 320 319 319 318 316 315 315 315 314 314 315 315 315 315 316 318 318 318 316 314 311 309 307 308 308 308 307 307 307 307 306 305 304 302 302 301 300 298 297 297 297 297 297 297 294 292
332 331 331 332 334 336 337 338 338 338 337 337 336 335 334 333 332 330 328 327 327 326 326 325 324 323 324 326 328 330 332 334 333 332 329 327 325 324 323 322 322 321 320 319 318 317 317 316 316 316 316 316 315 315 316 317 317 316 315 313 310 309 308 309 309 309 308 307 307 307 307 305 304 302 301 301 300 299 299 300 301 301 300 298 295 291
332 332 332 334 336 338 339 339 338 337 336 335 334 333 333 332 331 329 328 327 327 326 325 324 324 324 325 327 329 330 332 334 334 334 331 329 327 325 324 323 322 321 320 319 318 318 318 317 317 317 317 316 316 316 316 317 316 316 314 313 310 308 307 307 308 309 309 309 309 309 309 308 306 305 304 303 303 303 305 306 306 305 302 298 293 289
333 333 335 337 339 339 339 338 336 335 334 332 332 331 331 331 330 329 328 327 326 325 324 324 323 324 325 327 329 330 331 332 333 333 332 330 328 326 325 324 323 322 321 320 319 318 318 317 317 317 317 317 316 316 317 318 318 317 316 315 312 310 308 308 309 309 310 311 312 313 313 312 310 309 308 308 307 308 309 311 310 308 303 297 291 286
334 335 337 338 339 338 337 336 334 332 331 330 329 330 330 331 330 329 328 327 325 324 324 323 323 324 325 327 328 329 329 330 331 332 332 331 330 328 327 326 325 324 322 321 320 319 318 317 317 318 318 319 319 318 319 321 321 321 320 318 315 313 312 312 312 313 314 315 316 317 317 316 314 313 312 311 310 310 312 313 311 308 302 295 288 283
336 336 337 338 337 337 335 334 332 330 329 328 328 329 331 331 330 329 328 326 325 324 324 324 324 325 326 328 328 329 329 329 330 330 331 331 331 330 330 329 327 326 325 323 321 320 319 318 319 320 321 323 323 324 324 325 325 325 323 321 319 317 316 316 317 318 319 319 320 320 320 319 318 316 314 312 311 311 313 314 312 307 300 293 287 282
336 336 336 336 335 335 334 332 331 329 328 328 329 330 331 332 331 330 328 327 326 325 325 325 326 326 327 328 328 328 328 328 328 329 330 331 331 331 331 330 329 328 326 325 323 321 320 320 321 323 327 328 329 329 329 329 329 328 326 324 322 320 319 319 320 321 321 321 321 322 321 320 318 316 314 312 312 312 314 314 311 305 298 290 285 282
336 335 335 335 334 334 333 332 330 329 329 329 330 331 332 333 332 331 329 328 327 327 326 326 326 326 326 326 326 327 326 327 327 328 329 331 331 332 332 331 330 329 328 326 325 325 324 323 324 328 332 335 334 333 333 332 332 330 327 325 323 321 320 320 321 322 322 322 322 322 321 319 317 315 313 311 311 312 313 313 310 305 297 291 286 284
336 335 334 334 334 333 333 332 330 330 330 331 332 333 334 334 333 332 331 329 328 328 327 327 326 326 325 325 325 325 325 326 327 328 329 331 331 332 332 332 332 331 330 329 328 328 328 328 328 330 336 340 339 336 335 334 333 330 327 325 323 322 321 320 320 321 321 321 321 321 319 317 315 313 311 310 309 310 312 313 311 307 300 294 289 286